contact:dominique.lefevre@mio.osupytheas.fr, maurice.libes@osupytheas.fr, didier.mallarino@osupytheas.fr
Project:EMSO http://www.emso-fr.org/EMSO-France
Depth: 2436.0 m
Title:EMSO Ligure Ouest : Data MII capteur MICROCAT
DateTime_Computer,Latitude,Longitude,Temperature,Conductivity,Pressure,DateTime_Instrument
DateTime_Computer,Latitude,Longitude,degC,S m-1,dbar,DateTime_Instrument
2023-03-28T00:00:16Z,42.805,6.029,13.3015,4.60072,2470.717,2023-3-28T02:03:02Z
2023-03-28T00:03:19Z,42.805,6.029,13.3018,4.60072,2470.707,2023-3-28T02:06:05Z
2023-03-28T00:06:22Z,42.805,6.029,13.3020,4.60073,2470.693,2023-3-28T02:09:08Z
2023-03-28T00:09:25Z,42.805,6.029,13.3013,4.60073,2470.693,2023-3-28T02:12:11Z
2023-03-28T00:12:28Z,42.805,6.029,13.3016,4.60073,2470.707,2023-3-28T02:15:14Z
2023-03-28T00:15:31Z,42.805,6.029,13.3018,4.60073,2470.717,2023-3-28T02:18:17Z
2023-03-28T00:18:34Z,42.805,6.029,13.3015,4.60072,2470.74,2023-3-28T02:21:21Z
2023-03-28T00:21:37Z,42.805,6.029,13.3016,4.60073,2470.707,2023-3-28T02:24:24Z
2023-03-28T00:24:40Z,42.805,6.029,13.3016,4.60072,2470.693,2023-3-28T02:27:27Z
2023-03-28T00:27:43Z,42.805,6.029,13.3021,4.60073,2470.693,2023-3-28T02:30:30Z
2023-03-28T00:30:46Z,42.805,6.029,13.3015,4.60074,2470.73,2023-3-28T02:33:33Z
2023-03-28T00:33:49Z,42.805,6.029,13.3014,4.60072,2470.73,2023-3-28T02:36:36Z
2023-03-28T00:36:52Z,42.805,6.029,13.3015,4.60073,2470.717,2023-3-28T02:39:39Z
2023-03-28T00:39:56Z,42.805,6.029,13.3013,4.60073,2470.717,2023-3-28T02:42:42Z
2023-03-28T00:42:59Z,42.805,6.029,13.3017,4.60073,2470.67,2023-3-28T02:45:45Z
2023-03-28T00:46:02Z,42.805,6.029,13.3014,4.60072,2470.656,2023-3-28T02:48:48Z
2023-03-28T00:49:05Z,42.805,6.029,13.3015,4.60073,2470.717,2023-3-28T02:51:51Z
2023-03-28T00:52:08Z,42.805,6.029,13.3016,4.60072,2470.693,2023-3-28T02:54:54Z
2023-03-28T00:55:11Z,42.805,6.029,13.3014,4.60072,2470.693,2023-3-28T02:57:58Z
2023-03-28T00:58:14Z,42.805,6.029,13.3014,4.60072,2470.661,2023-3-28T03:01:01Z
2023-03-28T01:01:17Z,42.805,6.029,13.3016,4.60072,2470.67,2023-3-28T03:04:04Z
2023-03-28T01:04:20Z,42.805,6.029,13.3015,4.60072,2470.693,2023-3-28T03:07:07Z
2023-03-28T01:07:23Z,42.805,6.029,13.3019,4.60073,2470.693,2023-3-28T03:10:10Z
2023-03-28T01:10:26Z,42.805,6.029,13.3015,4.60074,2470.67,2023-3-28T03:13:13Z
2023-03-28T01:13:29Z,42.805,6.029,13.3017,4.60072,2470.67,2023-3-28T03:16:16Z
2023-03-28T01:16:33Z,42.805,6.029,13.3015,4.60073,2470.717,2023-3-28T03:19:19Z
2023-03-28T01:19:36Z,42.805,6.029,13.3020,4.60072,2470.646,2023-3-28T03:22:22Z
2023-03-28T01:22:39Z,42.805,6.029,13.3019,4.60072,2470.693,2023-3-28T03:25:25Z
2023-03-28T01:25:42Z,42.805,6.029,13.3019,4.60073,2470.707,2023-3-28T03:28:28Z
2023-03-28T01:28:45Z,42.805,6.029,13.3016,4.60072,2470.693,2023-3-28T03:31:31Z
2023-03-28T01:31:48Z,42.805,6.029,13.3017,4.60072,2470.707,2023-3-28T03:34:35Z
2023-03-28T01:34:51Z,42.805,6.029,13.3019,4.60073,2470.661,2023-3-28T03:37:38Z
2023-03-28T01:37:54Z,42.805,6.029,13.3017,4.60072,2470.67,2023-3-28T03:40:41Z
2023-03-28T01:40:57Z,42.805,6.029,13.3015,4.60072,2470.693,2023-3-28T03:43:44Z
2023-03-28T01:44:00Z,42.805,6.029,13.3019,4.60072,2470.67,2023-3-28T03:46:47Z
2023-03-28T01:47:03Z,42.805,6.029,13.3017,4.60073,2470.67,2023-3-28T03:49:50Z
2023-03-28T01:50:06Z,42.805,6.029,13.3015,4.60073,2470.754,2023-3-28T03:52:53Z
2023-03-28T01:53:10Z,42.805,6.029,13.3018,4.60072,2470.646,2023-3-28T03:55:56Z
2023-03-28T01:56:13Z,42.805,6.029,13.3015,4.60072,2470.707,2023-3-28T03:58:59Z
2023-03-28T01:59:16Z,42.805,6.029,13.3019,4.60073,2470.67,2023-3-28T04:02:02Z
2023-03-28T02:02:19Z,42.805,6.029,13.3023,4.60072,2470.67,2023-3-28T04:05:05Z
2023-03-28T02:05:22Z,42.805,6.029,13.3014,4.60073,2470.684,2023-3-28T04:08:08Z
2023-03-28T02:08:25Z,42.805,6.029,13.3016,4.60074,2470.661,2023-3-28T04:11:12Z
2023-03-28T02:11:28Z,42.805,6.029,13.3016,4.60073,2470.684,2023-3-28T04:14:15Z
2023-03-28T02:14:31Z,42.805,6.029,13.3017,4.60073,2470.67,2023-3-28T04:17:18Z
2023-03-28T02:17:34Z,42.805,6.029,13.3021,4.60073,2470.67,2023-3-28T04:20:21Z
2023-03-28T02:20:37Z,42.805,6.029,13.3015,4.60072,2470.67,2023-3-28T04:23:24Z
2023-03-28T02:23:40Z,42.805,6.029,13.3015,4.60072,2470.67,2023-3-28T04:26:27Z
2023-03-28T02:26:43Z,42.805,6.029,13.3011,4.60072,2470.67,2023-3-28T04:29:30Z
2023-03-28T02:29:47Z,42.805,6.029,13.3016,4.60073,2470.684,2023-3-28T04:32:33Z
2023-03-28T02:32:50Z,42.805,6.029,13.3017,4.60072,2470.693,2023-3-28T04:35:36Z
2023-03-28T02:35:53Z,42.805,6.029,13.3018,4.60072,2470.717,2023-3-28T04:38:39Z
2023-03-28T02:38:56Z,42.805,6.029,13.3014,4.60073,2470.67,2023-3-28T04:41:42Z
2023-03-28T02:41:59Z,42.805,6.029,13.3020,4.60073,2470.67,2023-3-28T04:44:45Z
2023-03-28T02:45:02Z,42.805,6.029,13.3014,4.60073,2470.684,2023-3-28T04:47:49Z
2023-03-28T02:48:05Z,42.805,6.029,13.3018,4.60073,2470.646,2023-3-28T04:50:52Z
2023-03-28T02:51:08Z,42.805,6.029,13.3017,4.60073,2470.693,2023-3-28T04:53:55Z
2023-03-28T02:54:11Z,42.805,6.029,13.3015,4.60073,2470.646,2023-3-28T04:56:58Z
2023-03-28T02:57:14Z,42.805,6.029,13.3015,4.60074,2470.684,2023-3-28T05:00:01Z
2023-03-28T03:00:17Z,42.805,6.029,13.3017,4.60073,2470.67,2023-3-28T05:03:04Z
2023-03-28T03:03:20Z,42.805,6.029,13.3016,4.60074,2470.684,2023-3-28T05:06:07Z
2023-03-28T03:06:23Z,42.805,6.029,13.3015,4.60072,2470.646,2023-3-28T05:09:10Z
2023-03-28T03:09:27Z,42.805,6.029,13.3015,4.60073,2470.67,2023-3-28T05:12:13Z
2023-03-28T03:12:30Z,42.805,6.029,13.3015,4.60074,2470.67,2023-3-28T05:15:16Z
2023-03-28T03:15:33Z,42.805,6.029,13.3020,4.60073,2470.693,2023-3-28T05:18:19Z
2023-03-28T03:18:36Z,42.805,6.029,13.3019,4.60073,2470.67,2023-3-28T05:21:22Z
2023-03-28T03:21:39Z,42.805,6.029,13.3017,4.60073,2470.67,2023-3-28T05:24:26Z
2023-03-28T03:24:42Z,42.805,6.029,13.3018,4.60074,2470.693,2023-3-28T05:27:29Z
2023-03-28T03:27:45Z,42.805,6.029,13.3015,4.60074,2470.693,2023-3-28T05:30:32Z
2023-03-28T03:30:48Z,42.805,6.029,13.3017,4.60074,2470.661,2023-3-28T05:33:35Z
2023-03-28T03:33:51Z,42.805,6.029,13.3016,4.60073,2470.684,2023-3-28T05:36:38Z
2023-03-28T03:36:54Z,42.805,6.029,13.3016,4.60073,2470.67,2023-3-28T05:39:41Z
2023-03-28T03:39:57Z,42.805,6.029,13.3015,4.60073,2470.67,2023-3-28T05:42:44Z
2023-03-28T03:43:00Z,42.805,6.029,13.3016,4.60074,2470.67,2023-3-28T05:45:47Z
2023-03-28T03:46:04Z,42.805,6.029,13.3015,4.60073,2470.656,2023-3-28T05:48:50Z
2023-03-28T03:49:07Z,42.805,6.029,13.3018,4.60073,2470.67,2023-3-28T05:51:53Z
2023-03-28T03:52:10Z,42.805,6.029,13.3020,4.60074,2470.67,2023-3-28T05:54:56Z
2023-03-28T03:55:13Z,42.805,6.029,13.3015,4.60074,2470.67,2023-3-28T05:57:59Z
2023-03-28T03:58:16Z,42.805,6.029,13.3018,4.60074,2470.67,2023-3-28T06:01:03Z
2023-03-28T04:01:19Z,42.805,6.029,13.3014,4.60074,2470.684,2023-3-28T06:04:06Z
2023-03-28T04:04:22Z,42.805,6.029,13.3014,4.60073,2470.67,2023-3-28T06:07:09Z
2023-03-28T04:07:25Z,42.805,6.029,13.3018,4.60074,2470.646,2023-3-28T06:10:12Z
2023-03-28T04:10:28Z,42.805,6.029,13.3016,4.60075,2470.707,2023-3-28T06:13:15Z
2023-03-28T04:13:31Z,42.805,6.029,13.3019,4.60074,2470.684,2023-3-28T06:16:18Z
2023-03-28T04:16:34Z,42.805,6.029,13.3019,4.60074,2470.73,2023-3-28T06:19:21Z
2023-03-28T04:19:37Z,42.805,6.029,13.3017,4.60074,2470.646,2023-3-28T06:22:24Z
2023-03-28T04:22:41Z,42.805,6.029,13.3015,4.60074,2470.707,2023-3-28T06:25:27Z
2023-03-28T04:25:44Z,42.805,6.029,13.3019,4.60075,2470.684,2023-3-28T06:28:30Z
2023-03-28T04:28:47Z,42.805,6.029,13.3019,4.60076,2470.646,2023-3-28T06:31:33Z
2023-03-28T04:31:51Z,42.805,6.029,13.3021,4.60075,2470.646,2023-3-28T06:34:37Z
2023-03-28T04:34:54Z,42.805,6.029,13.3019,4.60076,2470.646,2023-3-28T06:37:41Z
2023-03-28T04:37:57Z,42.805,6.029,13.3018,4.60076,2470.67,2023-3-28T06:40:44Z
2023-03-28T04:41:00Z,42.805,6.029,13.3019,4.60076,2470.684,2023-3-28T06:43:47Z
2023-03-28T04:44:03Z,42.805,6.029,13.3019,4.60077,2470.67,2023-3-28T06:46:50Z
2023-03-28T04:47:06Z,42.805,6.029,13.3019,4.60076,2470.646,2023-3-28T06:49:53Z
2023-03-28T04:50:09Z,42.805,6.029,13.3022,4.60076,2470.67,2023-3-28T06:52:56Z
2023-03-28T04:53:12Z,42.805,6.029,13.3019,4.60077,2470.684,2023-3-28T06:55:59Z
2023-03-28T04:56:15Z,42.805,6.029,13.3020,4.60077,2470.646,2023-3-28T06:59:02Z
2023-03-28T04:59:18Z,42.805,6.029,13.3019,4.60076,2470.646,2023-3-28T07:02:05Z
2023-03-28T05:02:22Z,42.805,6.029,13.3017,4.60077,2470.67,2023-3-28T07:05:08Z
2023-03-28T05:05:25Z,42.805,6.029,13.3014,4.60077,2470.684,2023-3-28T07:08:11Z
2023-03-28T05:08:28Z,42.805,6.029,13.3022,4.60076,2470.646,2023-3-28T07:11:14Z
2023-03-28T05:11:31Z,42.805,6.029,13.3018,4.60076,2470.646,2023-3-28T07:14:17Z
2023-03-28T05:14:34Z,42.805,6.029,13.3014,4.60077,2470.67,2023-3-28T07:17:21Z
2023-03-28T05:17:37Z,42.805,6.029,13.3020,4.60076,2470.646,2023-3-28T07:20:24Z
2023-03-28T05:20:40Z,42.805,6.029,13.3020,4.60076,2470.67,2023-3-28T07:23:27Z
2023-03-28T05:23:43Z,42.805,6.029,13.3019,4.60076,2470.67,2023-3-28T07:26:30Z
2023-03-28T05:26:46Z,42.805,6.029,13.3019,4.60077,2470.646,2023-3-28T07:29:33Z
2023-03-28T05:29:49Z,42.805,6.029,13.3020,4.60078,2470.661,2023-3-28T07:32:36Z
2023-03-28T05:32:52Z,42.805,6.029,13.3019,4.60076,2470.624,2023-3-28T07:35:39Z
2023-03-28T05:35:55Z,42.805,6.029,13.3020,4.60077,2470.67,2023-3-28T07:38:42Z
2023-03-28T05:38:59Z,42.805,6.029,13.3018,4.60076,2470.693,2023-3-28T07:41:45Z
2023-03-28T05:42:02Z,42.805,6.029,13.3020,4.60076,2470.624,2023-3-28T07:44:48Z
2023-03-28T05:45:05Z,42.805,6.029,13.3019,4.60077,2470.661,2023-3-28T07:47:51Z
2023-03-28T05:48:08Z,42.805,6.029,13.3020,4.60076,2470.684,2023-3-28T07:50:54Z
2023-03-28T05:51:11Z,42.805,6.029,13.3019,4.60077,2470.661,2023-3-28T07:53:58Z
2023-03-28T05:54:14Z,42.805,6.029,13.3016,4.60076,2470.646,2023-3-28T07:57:01Z
2023-03-28T05:57:17Z,42.805,6.029,13.3020,4.60076,2470.646,2023-3-28T08:00:04Z
2023-03-28T06:00:20Z,42.805,6.029,13.3019,4.60076,2470.684,2023-3-28T08:03:07Z
2023-03-28T06:03:23Z,42.805,6.029,13.3020,4.60076,2470.646,2023-3-28T08:06:10Z
2023-03-28T06:06:26Z,42.805,6.029,13.3018,4.60076,2470.624,2023-3-28T08:09:13Z
2023-03-28T06:09:29Z,42.805,6.029,13.3016,4.60076,2470.637,2023-3-28T08:12:16Z
2023-03-28T06:12:32Z,42.805,6.029,13.3015,4.60075,2470.67,2023-3-28T08:15:19Z
2023-03-28T06:15:35Z,42.805,6.029,13.3019,4.60076,2470.661,2023-3-28T08:18:22Z
2023-03-28T06:18:39Z,42.805,6.029,13.3020,4.60075,2470.624,2023-3-28T08:21:25Z
2023-03-28T06:21:42Z,42.805,6.029,13.3016,4.60077,2470.633,2023-3-28T08:24:28Z
2023-03-28T06:24:45Z,42.805,6.029,13.3017,4.60076,2470.624,2023-3-28T08:27:31Z
2023-03-28T06:27:48Z,42.805,6.029,13.3018,4.60076,2470.624,2023-3-28T08:30:34Z
2023-03-28T06:30:51Z,42.805,6.029,13.3016,4.60078,2470.661,2023-3-28T08:33:38Z
2023-03-28T06:33:54Z,42.805,6.029,13.3015,4.60076,2470.661,2023-3-28T08:36:41Z
2023-03-28T06:36:57Z,42.805,6.029,13.3019,4.60077,2470.661,2023-3-28T08:39:44Z
2023-03-28T06:40:00Z,42.805,6.029,13.3022,4.60076,2470.646,2023-3-28T08:42:47Z
2023-03-28T06:43:03Z,42.805,6.029,13.3022,4.60077,2470.684,2023-3-28T08:45:50Z
2023-03-28T06:46:06Z,42.805,6.029,13.3021,4.60075,2470.646,2023-3-28T08:48:53Z
2023-03-28T06:49:09Z,42.805,6.029,13.3017,4.60076,2470.661,2023-3-28T08:51:56Z
2023-03-28T06:52:12Z,42.805,6.029,13.3021,4.60076,2470.646,2023-3-28T08:54:59Z
2023-03-28T06:55:15Z,42.805,6.029,13.3019,4.60076,2470.624,2023-3-28T08:58:02Z
2023-03-28T06:58:19Z,42.805,6.029,13.3019,4.60076,2470.646,2023-3-28T09:01:05Z
2023-03-28T07:01:22Z,42.805,6.029,13.3019,4.60077,2470.633,2023-3-28T09:04:08Z
2023-03-28T07:04:25Z,42.805,6.029,13.3021,4.60076,2470.624,2023-3-28T09:07:11Z
2023-03-28T07:07:28Z,42.805,6.029,13.3018,4.60076,2470.624,2023-3-28T09:10:14Z
2023-03-28T07:10:31Z,42.805,6.029,13.3017,4.60076,2470.661,2023-3-28T09:13:18Z
2023-03-28T07:13:34Z,42.805,6.029,13.3018,4.60076,2470.67,2023-3-28T09:16:21Z
2023-03-28T07:16:37Z,42.805,6.029,13.3023,4.60076,2470.661,2023-3-28T09:19:24Z
2023-03-28T07:19:40Z,42.805,6.029,13.3019,4.60077,2470.624,2023-3-28T09:22:27Z
2023-03-28T07:22:43Z,42.805,6.029,13.3020,4.60076,2470.67,2023-3-28T09:25:30Z
2023-03-28T07:25:46Z,42.805,6.029,13.3021,4.60075,2470.661,2023-3-28T09:28:33Z
2023-03-28T07:28:49Z,42.805,6.029,13.3017,4.60076,2470.67,2023-3-28T09:31:36Z
2023-03-28T07:31:52Z,42.805,6.029,13.3019,4.60076,2470.646,2023-3-28T09:34:39Z
2023-03-28T07:34:55Z,42.805,6.029,13.3015,4.60075,2470.67,2023-3-28T09:37:42Z
2023-03-28T07:37:59Z,42.805,6.029,13.3019,4.60076,2470.646,2023-3-28T09:40:45Z
2023-03-28T07:41:02Z,42.805,6.029,13.3022,4.60076,2470.646,2023-3-28T09:43:48Z
2023-03-28T07:44:05Z,42.805,6.029,13.3019,4.60076,2470.624,2023-3-28T09:46:51Z
2023-03-28T07:47:08Z,42.805,6.029,13.3021,4.60076,2470.646,2023-3-28T09:49:55Z
2023-03-28T07:50:11Z,42.805,6.029,13.3015,4.60076,2470.624,2023-3-28T09:52:58Z
2023-03-28T07:53:14Z,42.805,6.029,13.3021,4.60075,2470.661,2023-3-28T09:56:01Z
2023-03-28T07:56:17Z,42.805,6.029,13.3019,4.60076,2470.67,2023-3-28T09:59:04Z
2023-03-28T07:59:20Z,42.805,6.029,13.3021,4.60076,2470.67,2023-3-28T10:02:07Z
2023-03-28T08:02:23Z,42.805,6.029,13.3018,4.60077,2470.684,2023-3-28T10:05:10Z
2023-03-28T08:05:26Z,42.805,6.029,13.3016,4.60077,2470.67,2023-3-28T10:08:13Z
2023-03-28T08:08:29Z,42.805,6.029,13.3021,4.60077,2470.646,2023-3-28T10:11:16Z
2023-03-28T08:11:32Z,42.805,6.029,13.3021,4.60076,2470.661,2023-3-28T10:14:19Z
2023-03-28T08:14:36Z,42.805,6.029,13.3019,4.60076,2470.646,2023-3-28T10:17:22Z
2023-03-28T08:17:39Z,42.805,6.029,13.3019,4.60077,2470.67,2023-3-28T10:20:25Z
2023-03-28T08:20:42Z,42.805,6.029,13.3016,4.60076,2470.646,2023-3-28T10:23:28Z
2023-03-28T08:23:45Z,42.805,6.029,13.3021,4.60077,2470.661,2023-3-28T10:26:32Z
2023-03-28T08:26:48Z,42.805,6.029,13.3019,4.60076,2470.646,2023-3-28T10:29:35Z
2023-03-28T08:29:51Z,42.805,6.029,13.3020,4.60076,2470.67,2023-3-28T10:32:38Z
2023-03-28T08:32:55Z,42.805,6.029,13.3019,4.60077,2470.684,2023-3-28T10:35:41Z
2023-03-28T08:35:58Z,42.805,6.029,13.3015,4.60076,2470.693,2023-3-28T10:38:44Z
2023-03-28T08:39:01Z,42.805,6.029,13.3016,4.60076,2470.67,2023-3-28T10:41:48Z
2023-03-28T08:42:04Z,42.805,6.029,13.3019,4.60077,2470.67,2023-3-28T10:44:51Z
2023-03-28T08:45:07Z,42.805,6.029,13.3016,4.60077,2470.67,2023-3-28T10:47:54Z
2023-03-28T08:48:10Z,42.805,6.029,13.3021,4.60077,2470.707,2023-3-28T10:50:57Z
2023-03-28T08:51:13Z,42.805,6.029,13.3019,4.60076,2470.67,2023-3-28T10:54:00Z
2023-03-28T08:54:16Z,42.805,6.029,13.3020,4.60077,2470.646,2023-3-28T10:57:03Z
2023-03-28T08:57:19Z,42.805,6.029,13.3024,4.60077,2470.67,2023-3-28T11:00:06Z
2023-03-28T09:00:22Z,42.805,6.029,13.3021,4.60076,2470.73,2023-3-28T11:03:09Z
2023-03-28T09:03:25Z,42.805,6.029,13.3021,4.60077,2470.661,2023-3-28T11:06:12Z
2023-03-28T09:06:29Z,42.805,6.029,13.3019,4.60077,2470.693,2023-3-28T11:09:15Z
2023-03-28T09:09:32Z,42.805,6.029,13.3019,4.60076,2470.646,2023-3-28T11:12:18Z
2023-03-28T09:12:35Z,42.805,6.029,13.3022,4.60077,2470.693,2023-3-28T11:15:21Z
2023-03-28T09:15:38Z,42.805,6.029,13.3015,4.60077,2470.693,2023-3-28T11:18:25Z
2023-03-28T09:18:41Z,42.805,6.029,13.3018,4.60077,2470.693,2023-3-28T11:21:28Z
2023-03-28T09:21:44Z,42.805,6.029,13.3014,4.60077,2470.693,2023-3-28T11:24:31Z
2023-03-28T09:24:47Z,42.805,6.029,13.3021,4.60077,2470.693,2023-3-28T11:27:34Z
2023-03-28T09:27:50Z,42.805,6.029,13.3021,4.60077,2470.693,2023-3-28T11:30:37Z
2023-03-28T09:30:53Z,42.805,6.029,13.3019,4.60077,2470.74,2023-3-28T11:33:40Z
2023-03-28T09:33:56Z,42.805,6.029,13.3021,4.60077,2470.73,2023-3-28T11:36:43Z
2023-03-28T09:36:59Z,42.805,6.029,13.3018,4.60077,2470.717,2023-3-28T11:39:46Z
2023-03-28T09:40:02Z,42.805,6.029,13.3019,4.60077,2470.693,2023-3-28T11:42:49Z
2023-03-28T09:43:06Z,42.805,6.029,13.3020,4.60077,2470.707,2023-3-28T11:45:52Z
2023-03-28T09:46:09Z,42.805,6.029,13.3022,4.60077,2470.73,2023-3-28T11:48:55Z
2023-03-28T09:49:12Z,42.805,6.029,13.3015,4.60077,2470.693,2023-3-28T11:51:59Z
2023-03-28T09:52:15Z,42.805,6.029,13.3018,4.60077,2470.73,2023-3-28T11:55:02Z
2023-03-28T09:55:18Z,42.805,6.029,13.3019,4.60077,2470.693,2023-3-28T11:58:05Z
2023-03-28T09:58:21Z,42.805,6.029,13.3021,4.60077,2470.717,2023-3-28T12:01:08Z
2023-03-28T10:01:24Z,42.805,6.029,13.3021,4.60077,2470.693,2023-3-28T12:04:11Z
2023-03-28T10:04:27Z,42.805,6.029,13.3019,4.60077,2470.73,2023-3-28T12:07:14Z
2023-03-28T10:07:30Z,42.805,6.029,13.3019,4.60077,2470.73,2023-3-28T12:10:17Z
2023-03-28T10:10:33Z,42.805,6.029,13.3022,4.60077,2470.717,2023-3-28T12:13:20Z
2023-03-28T10:13:36Z,42.805,6.029,13.3019,4.60077,2470.717,2023-3-28T12:16:23Z
2023-03-28T10:16:39Z,42.805,6.029,13.3018,4.60076,2470.717,2023-3-28T12:19:26Z
2023-03-28T10:19:43Z,42.805,6.029,13.3022,4.60077,2470.717,2023-3-28T12:22:29Z
2023-03-28T10:22:46Z,42.805,6.029,13.3018,4.60077,2470.693,2023-3-28T12:25:32Z
2023-03-28T10:25:49Z,42.805,6.029,13.3020,4.60077,2470.717,2023-3-28T12:28:35Z
2023-03-28T10:28:52Z,42.805,6.029,13.3020,4.60077,2470.763,2023-3-28T12:31:39Z
2023-03-28T10:31:53Z,42.805,6.029,13.3018,4.60078,2470.693,2023-3-28T12:34:40Z
2023-03-28T10:34:56Z,42.805,6.029,13.3019,4.60078,2470.67,2023-3-28T12:37:43Z
2023-03-28T10:37:59Z,42.805,6.029,13.3017,4.60077,2470.74,2023-3-28T12:40:46Z
2023-03-28T10:41:03Z,42.805,6.029,13.3019,4.60077,2470.717,2023-3-28T12:43:49Z
2023-03-28T10:44:06Z,42.805,6.029,13.3019,4.60077,2470.717,2023-3-28T12:46:52Z
2023-03-28T10:47:09Z,42.805,6.029,13.3024,4.60077,2470.74,2023-3-28T12:49:55Z
2023-03-28T10:50:12Z,42.805,6.029,13.3020,4.60079,2470.717,2023-3-28T12:52:59Z
2023-03-28T10:53:15Z,42.805,6.029,13.3024,4.60078,2470.693,2023-3-28T12:56:02Z
2023-03-28T10:56:18Z,42.805,6.029,13.3021,4.60077,2470.693,2023-3-28T12:59:05Z
2023-03-28T10:59:21Z,42.805,6.029,13.3019,4.60077,2470.74,2023-3-28T13:02:08Z
2023-03-28T11:02:24Z,42.805,6.029,13.3021,4.60077,2470.693,2023-3-28T13:05:11Z
2023-03-28T11:05:27Z,42.805,6.029,13.3023,4.60077,2470.74,2023-3-28T13:08:14Z
2023-03-28T11:08:30Z,42.805,6.029,13.3021,4.60079,2470.74,2023-3-28T13:11:17Z
2023-03-28T11:11:33Z,42.805,6.029,13.3021,4.60077,2470.693,2023-3-28T13:14:20Z
2023-03-28T11:14:36Z,42.805,6.029,13.3019,4.60078,2470.73,2023-3-28T13:17:23Z
2023-03-28T11:17:39Z,42.805,6.029,13.3020,4.60078,2470.684,2023-3-28T13:20:26Z
2023-03-28T11:20:43Z,42.805,6.029,13.3014,4.60078,2470.73,2023-3-28T13:23:29Z
2023-03-28T11:23:46Z,42.805,6.029,13.3018,4.60077,2470.717,2023-3-28T13:26:32Z
2023-03-28T11:26:49Z,42.805,6.029,13.3021,4.60079,2470.707,2023-3-28T13:29:36Z
2023-03-28T11:29:52Z,42.805,6.029,13.3020,4.60078,2470.693,2023-3-28T13:32:39Z
2023-03-28T11:32:55Z,42.805,6.029,13.3016,4.60077,2470.73,2023-3-28T13:35:42Z
2023-03-28T11:35:58Z,42.805,6.029,13.3019,4.60077,2470.717,2023-3-28T13:38:45Z
2023-03-28T11:39:01Z,42.805,6.029,13.3021,4.60078,2470.754,2023-3-28T13:41:48Z
2023-03-28T11:42:04Z,42.805,6.029,13.3021,4.60077,2470.754,2023-3-28T13:44:51Z
2023-03-28T11:45:07Z,42.805,6.029,13.3020,4.60080,2470.74,2023-3-28T13:47:54Z
2023-03-28T11:48:10Z,42.805,6.029,13.3019,4.60077,2470.693,2023-3-28T13:50:57Z
2023-03-28T11:51:13Z,42.805,6.029,13.3019,4.60079,2470.717,2023-3-28T13:54:00Z
2023-03-28T11:54:16Z,42.805,6.029,13.3019,4.60077,2470.74,2023-3-28T13:57:03Z
2023-03-28T11:57:20Z,42.805,6.029,13.3023,4.60078,2470.73,2023-3-28T14:00:06Z
2023-03-28T12:00:23Z,42.805,6.029,13.3021,4.60078,2470.717,2023-3-28T14:03:09Z
2023-03-28T12:03:26Z,42.805,6.029,13.3021,4.60079,2470.73,2023-3-28T14:06:13Z
2023-03-28T12:06:29Z,42.805,6.029,13.3021,4.60078,2470.717,2023-3-28T14:09:16Z
2023-03-28T12:09:32Z,42.805,6.029,13.3022,4.60078,2470.717,2023-3-28T14:12:19Z
2023-03-28T12:12:35Z,42.805,6.029,13.3021,4.60080,2470.707,2023-3-28T14:15:22Z
2023-03-28T12:15:38Z,42.805,6.029,13.3019,4.60079,2470.717,2023-3-28T14:18:25Z
2023-03-28T12:18:41Z,42.805,6.029,13.3024,4.60079,2470.73,2023-3-28T14:21:28Z
2023-03-28T12:21:44Z,42.805,6.029,13.3021,4.60078,2470.717,2023-3-28T14:24:31Z
2023-03-28T12:24:47Z,42.805,6.029,13.3020,4.60078,2470.73,2023-3-28T14:27:34Z
2023-03-28T12:27:50Z,42.805,6.029,13.3022,4.60079,2470.707,2023-3-28T14:30:37Z
2023-03-28T12:30:53Z,42.805,6.029,13.3017,4.60078,2470.67,2023-3-28T14:33:40Z
2023-03-28T12:33:57Z,42.805,6.029,13.3017,4.60079,2470.707,2023-3-28T14:36:43Z
2023-03-28T12:37:00Z,42.805,6.029,13.3021,4.60079,2470.693,2023-3-28T14:39:46Z
2023-03-28T12:40:03Z,42.805,6.029,13.3017,4.60079,2470.684,2023-3-28T14:42:50Z
2023-03-28T12:43:06Z,42.805,6.029,13.3020,4.60079,2470.693,2023-3-28T14:45:53Z
2023-03-28T12:46:09Z,42.805,6.029,13.3017,4.60079,2470.693,2023-3-28T14:48:56Z
2023-03-28T12:49:12Z,42.805,6.029,13.3019,4.60078,2470.693,2023-3-28T14:51:59Z
2023-03-28T12:52:15Z,42.805,6.029,13.3019,4.60079,2470.693,2023-3-28T14:55:02Z
2023-03-28T12:55:18Z,42.805,6.029,13.3020,4.60079,2470.707,2023-3-28T14:58:05Z
2023-03-28T12:58:21Z,42.805,6.029,13.3019,4.60079,2470.707,2023-3-28T15:01:08Z
2023-03-28T13:01:24Z,42.805,6.029,13.3024,4.60079,2470.693,2023-3-28T15:04:11Z
2023-03-28T13:04:27Z,42.805,6.029,13.3014,4.60078,2470.684,2023-3-28T15:07:14Z
2023-03-28T13:07:31Z,42.805,6.029,13.3020,4.60078,2470.707,2023-3-28T15:10:17Z
2023-03-28T13:10:34Z,42.805,6.029,13.3022,4.60079,2470.67,2023-3-28T15:13:20Z
2023-03-28T13:13:37Z,42.805,6.029,13.3024,4.60080,2470.693,2023-3-28T15:16:24Z
2023-03-28T13:16:40Z,42.805,6.029,13.3019,4.60079,2470.656,2023-3-28T15:19:27Z
2023-03-28T13:19:43Z,42.805,6.029,13.3020,4.60080,2470.693,2023-3-28T15:22:30Z
2023-03-28T13:22:46Z,42.805,6.029,13.3019,4.60079,2470.684,2023-3-28T15:25:33Z
2023-03-28T13:25:49Z,42.805,6.029,13.3020,4.60079,2470.693,2023-3-28T15:28:36Z
2023-03-28T13:28:52Z,42.805,6.029,13.3021,4.60079,2470.684,2023-3-28T15:31:39Z
2023-03-28T13:31:55Z,42.805,6.029,13.3021,4.60079,2470.693,2023-3-28T15:34:42Z
2023-03-28T13:34:58Z,42.805,6.029,13.3024,4.60079,2470.684,2023-3-28T15:37:45Z
2023-03-28T13:38:01Z,42.805,6.029,13.3024,4.60081,2470.717,2023-3-28T15:40:48Z
2023-03-28T13:41:04Z,42.805,6.029,13.3023,4.60080,2470.693,2023-3-28T15:43:51Z
2023-03-28T13:44:08Z,42.805,6.029,13.3021,4.60081,2470.67,2023-3-28T15:46:54Z
2023-03-28T13:47:11Z,42.805,6.029,13.3024,4.60081,2470.67,2023-3-28T15:49:58Z
2023-03-28T13:50:14Z,42.805,6.029,13.3024,4.60081,2470.684,2023-3-28T15:53:01Z
2023-03-28T13:53:17Z,42.805,6.029,13.3020,4.60081,2470.67,2023-3-28T15:56:04Z
2023-03-28T13:56:20Z,42.805,6.029,13.3023,4.60081,2470.67,2023-3-28T15:59:07Z
2023-03-28T13:59:23Z,42.805,6.029,13.3023,4.60081,2470.637,2023-3-28T16:02:10Z
2023-03-28T14:02:26Z,42.805,6.029,13.3021,4.60080,2470.67,2023-3-28T16:05:13Z
2023-03-28T14:05:29Z,42.805,6.029,13.3020,4.60079,2470.693,2023-3-28T16:08:16Z
2023-03-28T14:08:32Z,42.805,6.029,13.3019,4.60080,2470.684,2023-3-28T16:11:19Z
2023-03-28T14:11:35Z,42.805,6.029,13.3022,4.60079,2470.707,2023-3-28T16:14:22Z
2023-03-28T14:14:38Z,42.805,6.029,13.3022,4.60079,2470.67,2023-3-28T16:17:25Z
2023-03-28T14:17:42Z,42.805,6.029,13.3024,4.60081,2470.624,2023-3-28T16:20:28Z
2023-03-28T14:20:45Z,42.805,6.029,13.3022,4.60079,2470.67,2023-3-28T16:23:31Z
2023-03-28T14:23:48Z,42.805,6.029,13.3017,4.60081,2470.633,2023-3-28T16:26:35Z
2023-03-28T14:26:51Z,42.805,6.029,13.3019,4.60080,2470.67,2023-3-28T16:29:38Z
2023-03-28T14:29:54Z,42.805,6.029,13.3022,4.60080,2470.67,2023-3-28T16:32:41Z
2023-03-28T14:32:56Z,42.805,6.029,13.3024,4.60079,2470.684,2023-3-28T16:35:43Z
2023-03-28T14:35:59Z,42.805,6.029,13.3020,4.60080,2470.684,2023-3-28T16:38:46Z
2023-03-28T14:39:02Z,42.805,6.029,13.3024,4.60080,2470.67,2023-3-28T16:41:49Z
2023-03-28T14:42:05Z,42.805,6.029,13.3022,4.60080,2470.684,2023-3-28T16:44:52Z
2023-03-28T14:45:08Z,42.805,6.029,13.3021,4.60080,2470.67,2023-3-28T16:47:55Z
2023-03-28T14:48:11Z,42.805,6.029,13.3022,4.60080,2470.67,2023-3-28T16:50:58Z
2023-03-28T14:51:14Z,42.805,6.029,13.3019,4.60081,2470.693,2023-3-28T16:54:01Z
2023-03-28T14:54:18Z,42.805,6.029,13.3025,4.60081,2470.646,2023-3-28T16:57:04Z
2023-03-28T14:57:21Z,42.805,6.029,13.3019,4.60080,2470.624,2023-3-28T17:00:08Z
2023-03-28T15:00:24Z,42.805,6.029,13.3021,4.60080,2470.693,2023-3-28T17:03:11Z
2023-03-28T15:03:27Z,42.805,6.029,13.3022,4.60080,2470.646,2023-3-28T17:06:14Z
2023-03-28T15:06:30Z,42.805,6.029,13.3026,4.60079,2470.67,2023-3-28T17:09:17Z
2023-03-28T15:09:33Z,42.805,6.029,13.3024,4.60081,2470.646,2023-3-28T17:12:20Z
2023-03-28T15:12:36Z,42.805,6.029,13.3023,4.60081,2470.646,2023-3-28T17:15:23Z